Weather Roundup
Issued by NWS Chicago, IL

Home | Current Version | Previous Version | Graphics & Text | Print | Product List | Glossary On
Versions: 1 2 3 4 5 6 7 8 9 10 11 12 13 14 15 16 17 18 19 20 21 22 23 24 25 26 27 28 29 30 31 32 33 34 35 36 37 38 39 40 41 42 43 44 45 46 47 48 49 50
000
NZUS59 KLOT 311408
HRRLOT

CHICAGO AREA WEATHER ROUNDUP
NATIONAL WEATHER SERVICE CHICAGO/ROMEOVILLE IL
900 AM CDT WED AUG 31 2016

NOTE: "FAIR" INDICATES FEW OR NO CLOUDS BELOW 12,000 FEET WITH NO
SIGNIFICANT WEATHER AND/OR OBSTRUCTIONS TO VISIBILITY.

* THESE STATIONS ARE NOT UNDER NWS QUALITY CONTROL. THEY ALSO MAY NOT
  REPORT WEATHER SUCH AS PRECIPITATION OR FOG.

ILZ005-006-012>014-019>023-311500-
NORTHEAST ILLINOIS

CITY           SKY/WX    TMP DP  RH WIND       PRES   REMARKS
OHARE          PTSUNNY   71  62  73 N10       30.06F
MIDWAY         CLOUDY    73  64  73 N12       30.05F
AURORA         MOSUNNY   71  63  75 N12       30.08S
LANSING*       CLOUDY    72  69  91 N3G16     30.05R
JOLIET*        CLOUDY    74  68  82 NE8       30.07R
WAUKEGAN       MOSUNNY   70  61  73 N8        30.07S
DUPAGE AIRPORT MOSUNNY   71  63  75 N9        30.07S
WHEELING       MOSUNNY   72  62  71 N10       30.08S
KANKAKEE*      MOSUNNY   74  70  86 N5        30.05F
MORRIS*        CLOUDY    72  68  87 CALM      30.06R
LEWIS AIRPORT* CLOUDY    72  68  89 NE9       30.07R
NORTHERLY ISL    N/A     70  63  78 N13         N/A
$$

WIZ051-052-058>065-066-070>072-311500-
SOUTHEAST WISCONSIN

CITY           SKY/WX    TMP DP  RH WIND       PRES   REMARKS
MILWAUKEE      PTSUNNY   70  59  68 N14       30.09S
KENOSHA*       MOSUNNY   68  61  78 NE7       30.09S
RACINE*        MOSUNNY   67  59  75 N13       30.10S
BURLINGTON     MOSUNNY   65  58  78 N3        30.10S
WAUKESHA       SUNNY     64  55  72 N8        30.13R
$$

INZ001>003-010>013-019-020-311500-
NORTHWEST INDIANA

CITY           SKY/WX    TMP DP  RH WIND       PRES   REMARKS
GARY*          CLOUDY    75  70  83 N14       30.05S
MICHIGAN CITY* NOT AVBL
RENSSELAER*    NOT AVBL
VALPARAISO     CLOUDY    75  70  84 NW8       30.04R
$$

LMZ740>746-311500-
SOUTHERN LAKE MICHIGAN

STATION/POSITION TIME  SKY/WX   TEMP WIND        PRES    VSBY
                                AIR  DIR/SP/G
                 (UTC)          (F)  (DEG/KT/KT) (MB)    (MI)
HARRISON CRIB    1300            70  340/ 19/ 20   N/A
BURNHAM HARBOR   1400            70  350/  9/ 14   N/A
CALUMET HARBOR   1300            71  320/  9/ 16 1017.1S
BURNS HARBOR     1305            73  340/  9/ 12 1017.6S
MICHIGAN CITY    1300            73  320/  9/ 10   N/A
$$

ABBREVIATIONS USED IN REMARKS
   TC - TEMPERATURE IN CELSIUS
  WCI - WIND CHILL INDEX
   HX - HEAT INDEX
  VSB - VISIBILITY
$$



USA.gov is the U.S. government's official web portal to all federal, state and local government web resources and services.